TimeCST,TemperatureF,Dew PointF,Humidity,Sea Level PressureIn,VisibilityMPH,Wind Direction,Wind SpeedMPH,Gust SpeedMPH,PrecipitationIn,Events,Conditions,WindDirDegrees,DateUTC
12:53 AM,54.0,51.1,90,30.26,5.0,Calm,Calm,-,N/A,,Clear,0,2013-01-23 06:53:00
1:53 AM,54.0,51.1,90,30.25,7.0,Calm,Calm,-,N/A,,Clear,0,2013-01-23 07:53:00
2:12 AM,51.8,48.2,88,30.25,1.2,Calm,Calm,-,N/A,,Clear,0,2013-01-23 08:12:00
2:15 AM,51.8,48.2,88,30.25,0.5,Calm,Calm,-,N/A,Fog,Fog,0,2013-01-23 08:15:00
2:25 AM,51.8,48.2,88,30.25,0.2,Calm,Calm,-,N/A,Fog,Fog,0,2013-01-23 08:25:00
2:47 AM,53.6,48.2,82,30.25,0.8,Calm,Calm,-,N/A,,Clear,0,2013-01-23 08:47:00
2:53 AM,53.1,48.9,86,30.25,1.8,Calm,Calm,-,N/A,,Partly Cloudy,0,2013-01-23 08:53:00
3:06 AM,53.6,50.0,88,30.25,0.5,Calm,Calm,-,N/A,Fog,Fog,0,2013-01-23 09:06:00
3:21 AM,53.6,50.0,88,30.25,1.0,Calm,Calm,-,N/A,,Mostly Cloudy,0,2013-01-23 09:21:00
3:26 AM,51.8,48.2,88,30.25,0.5,Calm,Calm,-,N/A,Fog,Fog,0,2013-01-23 09:26:00
3:36 AM,51.8,48.2,88,30.25,0.8,Calm,Calm,-,N/A,,Scattered Clouds,0,2013-01-23 09:36:00
3:44 AM,51.8,46.4,82,30.25,1.2,NNE,4.6,-,N/A,,Scattered Clouds,20,2013-01-23 09:44:00
3:49 AM,51.8,46.4,82,30.25,4.0,North,5.8,-,N/A,,Mostly Cloudy,360,2013-01-23 09:49:00
3:53 AM,51.1,46.9,86,30.24,5.0,North,4.6,-,N/A,,Mostly Cloudy,350,2013-01-23 09:53:00
4:13 AM,51.8,48.2,88,30.25,1.8,North,5.8,-,N/A,,Overcast,10,2013-01-23 10:13:00
4:23 AM,50.0,48.2,94,30.24,0.5,NNE,4.6,-,N/A,Fog,Fog,20,2013-01-23 10:23:00
4:34 AM,50.0,48.2,94,30.24,0.2,NNE,4.6,-,N/A,Fog,Fog,20,2013-01-23 10:34:00
4:53 AM,51.1,48.9,92,30.24,0.2,North,4.6,-,N/A,Fog,Fog,10,2013-01-23 10:53:00
4:58 AM,51.8,48.2,88,30.25,0.8,NNE,5.8,-,N/A,,Mostly Cloudy,20,2013-01-23 10:58:00
5:02 AM,51.8,48.2,88,30.25,2.0,NNE,4.6,-,N/A,,Mostly Cloudy,20,2013-01-23 11:02:00
5:05 AM,51.8,48.2,88,30.25,3.0,North,4.6,-,N/A,,Mostly Cloudy,10,2013-01-23 11:05:00
5:53 AM,51.1,50.0,96,30.25,3.0,NNE,3.5,-,N/A,,Scattered Clouds,30,2013-01-23 11:53:00
6:53 AM,50.0,48.9,96,30.26,4.0,Calm,Calm,-,N/A,,Scattered Clouds,0,2013-01-23 12:53:00
7:15 AM,50.0,48.2,94,30.27,2.5,Calm,Calm,-,N/A,,Mostly Cloudy,0,2013-01-23 13:15:00
7:34 AM,51.8,50.0,94,30.28,2.5,NW,3.5,-,N/A,,Scattered Clouds,320,2013-01-23 13:34:00
7:53 AM,52.0,50.0,93,30.28,2.0,Calm,Calm,-,N/A,,Clear,0,2013-01-23 13:53:00
8:11 AM,53.6,53.6,100,30.28,3.0,Calm,Calm,-,N/A,,Clear,0,2013-01-23 14:11:00
8:53 AM,60.1,55.9,86,30.29,7.0,Calm,Calm,-,N/A,,Partly Cloudy,0,2013-01-23 14:53:00
9:53 AM,69.1,60.1,73,30.32,10.0,South,5.8,-,N/A,,Scattered Clouds,170,2013-01-23 15:53:00
10:53 AM,73.9,61.0,64,30.32,10.0,SSE,12.7,-,N/A,,Scattered Clouds,150,2013-01-23 16:53:00
11:30 AM,75.2,60.8,61,30.32,10.0,South,11.5,-,N/A,,Mostly Cloudy,190,2013-01-23 17:30:00
11:53 AM,75.0,59.0,57,30.30,10.0,South,11.5,-,N/A,,Mostly Cloudy,190,2013-01-23 17:53:00
12:53 PM,79.0,57.9,48,30.27,10.0,SSW,8.1,-,N/A,,Mostly Cloudy,200,2013-01-23 18:53:00
1:53 PM,78.1,57.9,50,30.24,10.0,SW,5.8,-,N/A,,Overcast,230,2013-01-23 19:53:00
2:53 PM,80.1,57.9,47,30.21,10.0,South,10.4,-,N/A,,Scattered Clouds,190,2013-01-23 20:53:00
3:53 PM,80.1,57.9,47,30.20,10.0,SSE,6.9,-,N/A,,Scattered Clouds,160,2013-01-23 21:53:00
4:53 PM,78.1,60.1,54,30.20,10.0,SE,11.5,-,N/A,,Clear,140,2013-01-23 22:53:00
5:53 PM,73.0,60.1,64,30.21,10.0,SE,16.1,-,N/A,,Scattered Clouds,130,2013-01-23 23:53:00
6:53 PM,70.0,59.0,68,30.22,10.0,SE,10.4,-,N/A,,Mostly Cloudy,130,2013-01-24 00:53:00
7:53 PM,68.0,59.0,73,30.23,10.0,SSE,11.5,-,N/A,,Mostly Cloudy,150,2013-01-24 01:53:00
8:53 PM,64.9,59.0,81,30.23,10.0,SSE,9.2,-,N/A,,Clear,160,2013-01-24 02:53:00
9:53 PM,64.9,59.0,81,30.23,10.0,South,8.1,-,N/A,,Clear,170,2013-01-24 03:53:00
10:53 PM,64.9,59.0,81,30.25,10.0,SSE,9.2,-,N/A,,Clear,160,2013-01-24 04:53:00
11:53 PM,63.0,59.0,87,30.24,10.0,South,5.8,-,N/A,,Clear,170,2013-01-24 05:53:00